Regional Weather Roundup
Issued by NWS Newport/Morehead, NC

Current Version | Previous Version | Graphics & Text | Print | Product List | Glossary On
Versions: 1 2 3 4 5 6 7 8 9 10 11 12 13 14 15 16 17 18 19 20 21 22 23 24 25 26 27 28 29 30 31 32 33 34 35 36 37 38 39 40 41 42 43 44 45 46 47 48 49 50
000 ASUS42 KMHX 052013 RWRMHX WEATHER ROUNDUP FOR EASTERN NORTH CAROLINA NATIONAL WEATHER SERVICE NEWPORT/MOREHEAD CITY NC 400 PM EDT THU MAY 05 2016 NOTE: "FAIR" INDICATES FEW OR NO CLOUDS BELOW 12,000 FEET WITH NO SIGNIFICANT WEATHER AND/OR OBSTRUCTIONS TO VISIBILITY NCZ015>017-031-032-045>047-102-103-052100- NORTH COAST CITY SKY/WX TMP DP RH WIND PRES REMARKS EDENTON CLOUDY 55 54 94 N9 29.56S ELIZABETH CITY CLOUDY 54 49 83 N17G28 29.55R KITTY HAWK CLOUDY 55 49 80 N10G22 29.51F MANTEO CLOUDY 54 51 89 NE20G26 29.52F $$ NCZ045>047-081-094-103-104-052100- CENTRAL COAST CITY SKY/WX TMP DP RH WIND PRES REMARKS FRISCO CLOUDY 57 53 86 NE10G22 29.50S SWANQUARTER NOT AVBL $$ NCZ095-097-098-100-101-052100- SOUTHERN COAST CITY SKY/WX TMP DP RH WIND PRES REMARKS BEAUFORT CLOUDY 62 59 90 N7 29.50R CEDAR ISLAND NOT AVBL JACKSONVILLE TSTM 56 54 93 W10 29.54R VSB 1/2 PINEY ISLAND NOT AVBL WILMINGTON CLOUDY 59 54 83 N13 29.54R $$ NCZ011>013-027>030-043-044-078>080-089-090>093-098-052100- COASTAL PLAIN CITY SKY/WX TMP DP RH WIND PRES REMARKS AHOSKIE RAIN 53 51 95 NE5 29.56F CLINTON PTSUNNY 57 49 76 NW7 29.58R ELIZABETHTOWN CLOUDY 62 48 59 NW12 29.57R GOLDSBORO LGT RAIN 55 55 100 NW13 29.54S GREENVILLE RAIN 55 55 100 N3 29.59R HAVELOCK LGT RAIN 60 56 86 N17 29.51S FOG KENANSVILLE CLOUDY 56 53 90 NW15G24 29.57R KINSTON HVY RAIN 55 55 100 NW10G17 29.56R NEW BERN TSTM 58 55 90 NE12 29.52S FOG RICHLANDS LGT RAIN 55 55 100 NW9G18 29.55R ROCKY MOUNT RAIN 54 52 93 NW6 29.57S FOG WASHINGTON PTSUNNY 56 54 93 NE5 29.54R WHITEVILLE NOT AVBL $$ AMZ130-135-150-152-154-156-158-170-250-252-270-ANZ085-086-088-633-658-670-052100- MARINE OBSERVATIONS STATION/POSITION TIME TEMP WIND PRES WAVE SWELL AIR SEA DIR/SP/G HT/PER HT/PER (UTC) (F) (DEG/KT/KT) (MB) (FT/S) (FT/S) CHESAPEAKE LIGHT 1900 50 30/ 28/ 30 1001.2 64 E VA BEACH 1950 51 52 20/ 21/ 25 998.7 7/ 7 3/16 DUCK 1900 52 62 20/ 23/ 28 999.4 2 E DUCK 1911 59 N/A 6/ 6 OREGON INLET 1900 53 61 20/ 18/ 23 999.2 13E OREGON INLT 2000 55 N/A 7/ 7 2/18 HATTERAS CG 1900 57 68 30/ 16/ 23 998.6 DIAMOND BUOY 1950 58 77 30/ 21/ 25 998.0 6/ 6 CAPE LOOKOUT 2000 61 70/ 14/ 15 998.6 BEAUFORT LAB 1900 64 68 30/ 8/ 12 997.8 30 SE NEW RVR IN 1925 73 N/A 4/ 6 27 SE WRIGHTSVLE 1908 69 72 250/ 12/ 19 998.1 5 SE WRIGHTSVLE 1908 68 70 290/ 17/ 25 999.0 225 S CAPE HAT 1950 74 74 240/ 17/ 21 1001.1 7/ 8 2/14 41 SE CHARLESTON 1950 68 74 270/ 21/ 27 1001.5 6/ 6 $$

USA.gov is the U.S. government's official web portal to all federal, state and local government web resources and services.